Location: *
(43.9905°S, 176.4941°W)
Time: 08:38:48
(UTC+00:00)

Cosmos 2298 Rocket - Pass Details

Date: 08 December 2019
Orbit: 775 x 784 km, 74.0° (Epoch: 26 January)

Event Time Altitude Azimuth Distance (km) Brightness Sun altitude
Rises 11:01:04 0° 201° (SSW) 3,311 8.7 -22.8°
Reaches altitude 10° 11:03:29 10° 200° (SSW) 2,375 7.6 -22.8°
Maximum altitude 11:08:55 86° 110° (ESE) 800 4.0 -23.0°
Enters shadow 11:10:06 56° 26° (NNE) 936 4.0 -23.0°
